Year,Month,Day,Hour,Minute,Value (Times are PST for temperature in C)
2015,06,12,00,00,14.30
2015,06,12,00,01,14.30
2015,06,12,00,02,14.30
2015,06,12,00,03,14.20
2015,06,12,00,04,14.20
2015,06,12,00,05,14.20
2015,06,12,00,06,14.20
2015,06,12,00,07,14.20
2015,06,12,00,08,14.20
2015,06,12,00,09,14.10
2015,06,12,00,10,14.10
2015,06,12,00,11,14.10
2015,06,12,00,12,14.00
2015,06,12,00,13,14.00
2015,06,12,00,14,14.00
2015,06,12,00,15,14.00
2015,06,12,00,16,13.90
2015,06,12,00,17,13.90
2015,06,12,00,18,13.90
2015,06,12,00,19,13.90
2015,06,12,00,20,13.90
2015,06,12,00,21,13.90
2015,06,12,00,22,13.90
2015,06,12,00,23,13.90
2015,06,12,00,24,13.90
2015,06,12,00,25,13.90
2015,06,12,00,26,13.90
2015,06,12,00,27,13.90
2015,06,12,00,28,13.90
2015,06,12,00,29,13.90
2015,06,12,00,30,13.90
2015,06,12,00,31,13.90
2015,06,12,00,32,13.80
2015,06,12,00,33,13.80
2015,06,12,00,34,13.80
2015,06,12,00,35,13.80
2015,06,12,00,36,13.80
2015,06,12,00,37,13.70
2015,06,12,00,38,13.70
2015,06,12,00,39,13.70
2015,06,12,00,40,13.70
2015,06,12,00,41,13.70
2015,06,12,00,42,13.70
2015,06,12,00,43,13.70
2015,06,12,00,44,13.70
2015,06,12,00,45,13.70
2015,06,12,00,46,13.70
2015,06,12,00,47,13.70
2015,06,12,00,48,13.60
2015,06,12,00,49,13.60
2015,06,12,00,50,13.60
2015,06,12,00,51,13.60
2015,06,12,00,52,13.60
2015,06,12,00,53,13.60
2015,06,12,00,54,13.50
2015,06,12,00,55,13.50
2015,06,12,00,56,13.50
2015,06,12,00,57,13.50
2015,06,12,00,58,13.50
2015,06,12,00,59,13.50
2015,06,12,01,00,13.50
2015,06,12,01,01,13.50
2015,06,12,01,02,13.40
2015,06,12,01,03,13.40
2015,06,12,01,04,13.40
2015,06,12,01,05,13.40
2015,06,12,01,06,13.40
2015,06,12,01,07,13.30
2015,06,12,01,08,13.30
2015,06,12,01,09,13.30
2015,06,12,01,10,13.30
2015,06,12,01,11,13.30
2015,06,12,01,12,13.30
2015,06,12,01,13,13.30
2015,06,12,01,14,13.30
2015,06,12,01,15,13.30
2015,06,12,01,16,13.20
2015,06,12,01,17,13.20
2015,06,12,01,18,13.20
2015,06,12,01,19,13.20
2015,06,12,01,20,13.20
2015,06,12,01,21,13.20
2015,06,12,01,22,13.10
2015,06,12,01,23,13.10
2015,06,12,01,24,13.10
2015,06,12,01,25,13.10
2015,06,12,01,26,13.10
2015,06,12,01,27,13.10
2015,06,12,01,28,13.10
2015,06,12,01,29,13.00
2015,06,12,01,30,13.00
2015,06,12,01,31,13.00
2015,06,12,01,32,13.00
2015,06,12,01,33,13.00
2015,06,12,01,34,12.90
2015,06,12,01,35,12.90
2015,06,12,01,36,12.90
2015,06,12,01,37,12.80
2015,06,12,01,38,12.80
2015,06,12,01,39,12.80
2015,06,12,01,40,12.80
2015,06,12,01,41,12.80
2015,06,12,01,42,12.80
2015,06,12,01,43,12.80
2015,06,12,01,44,12.80
2015,06,12,01,45,12.80
2015,06,12,01,46,12.80
2015,06,12,01,47,12.80
2015,06,12,01,48,12.80
2015,06,12,01,49,12.80
2015,06,12,01,50,12.80
2015,06,12,01,51,12.70
2015,06,12,01,52,12.70
2015,06,12,01,53,12.70
2015,06,12,01,54,12.70
2015,06,12,01,55,12.60
2015,06,12,01,56,12.60
2015,06,12,01,57,12.60
2015,06,12,01,58,12.60
2015,06,12,01,59,12.60
2015,06,12,02,00,12.60
2015,06,12,02,01,12.60
2015,06,12,02,02,12.60
2015,06,12,02,03,12.60
2015,06,12,02,04,12.60
2015,06,12,02,05,12.60
2015,06,12,02,06,12.60
2015,06,12,02,07,12.50
2015,06,12,02,08,12.50
2015,06,12,02,09,12.50
2015,06,12,02,10,12.50
2015,06,12,02,11,12.50
2015,06,12,02,12,12.50
2015,06,12,02,13,12.50
2015,06,12,02,14,12.50
2015,06,12,02,15,12.50
2015,06,12,02,16,12.50
2015,06,12,02,17,12.50
2015,06,12,02,18,12.50
2015,06,12,02,19,12.50
2015,06,12,02,20,12.40
2015,06,12,02,21,12.40
2015,06,12,02,22,12.40
2015,06,12,02,23,12.40
2015,06,12,02,24,12.40
2015,06,12,02,25,12.30
2015,06,12,02,26,12.30
2015,06,12,02,27,12.30
2015,06,12,02,28,12.30
2015,06,12,02,29,12.30
2015,06,12,02,30,12.30
2015,06,12,02,31,12.30
2015,06,12,02,32,12.30
2015,06,12,02,33,12.30
2015,06,12,02,34,12.30
2015,06,12,02,35,12.30
2015,06,12,02,36,12.30
2015,06,12,02,37,12.20
2015,06,12,02,38,12.20
2015,06,12,02,39,12.20
2015,06,12,02,40,12.20
2015,06,12,02,41,12.10
2015,06,12,02,42,12.10
2015,06,12,02,43,12.10
2015,06,12,02,44,12.10
2015,06,12,02,45,12.10
2015,06,12,02,46,12.10
2015,06,12,02,47,12.10
2015,06,12,02,48,12.10
2015,06,12,02,49,12.10
2015,06,12,02,50,12.10
2015,06,12,02,51,12.10
2015,06,12,02,52,12.10
2015,06,12,02,53,12.00
2015,06,12,02,54,12.00
2015,06,12,02,55,12.00
2015,06,12,02,56,12.00
2015,06,12,02,57,12.00
2015,06,12,02,58,12.00
2015,06,12,02,59,12.00
2015,06,12,03,00,12.00
2015,06,12,03,01,12.00
2015,06,12,03,02,12.00
2015,06,12,03,03,12.00
2015,06,12,03,04,12.00
2015,06,12,03,05,11.90
2015,06,12,03,06,11.90
2015,06,12,03,07,11.90
2015,06,12,03,08,11.90
2015,06,12,03,09,11.90
2015,06,12,03,10,11.90
2015,06,12,03,11,11.80
2015,06,12,03,12,11.80
2015,06,12,03,13,11.80
2015,06,12,03,14,11.80
2015,06,12,03,15,11.80
2015,06,12,03,16,11.80
2015,06,12,03,17,11.80
2015,06,12,03,18,11.80
2015,06,12,03,19,11.80
2015,06,12,03,20,11.80
2015,06,12,03,21,11.80
2015,06,12,03,22,11.80
2015,06,12,03,23,11.80
2015,06,12,03,24,11.70
2015,06,12,03,25,11.80
2015,06,12,03,26,11.80
2015,06,12,03,27,11.80
2015,06,12,03,28,11.80
2015,06,12,03,29,11.80
2015,06,12,03,30,11.80
2015,06,12,03,31,11.80
2015,06,12,03,32,11.80
2015,06,12,03,33,11.80
2015,06,12,03,34,11.80
2015,06,12,03,35,11.80
2015,06,12,03,36,11.80
2015,06,12,03,37,11.80
2015,06,12,03,38,11.80
2015,06,12,03,39,11.80
2015,06,12,03,40,11.80
2015,06,12,03,41,11.80
2015,06,12,03,42,11.80
2015,06,12,03,43,11.80
2015,06,12,03,44,11.80
2015,06,12,03,45,11.80
2015,06,12,03,46,11.80
2015,06,12,03,47,11.80
2015,06,12,03,48,11.80
2015,06,12,03,49,11.80
2015,06,12,03,50,11.80
2015,06,12,03,51,11.80
2015,06,12,03,52,11.80
2015,06,12,03,53,11.80
2015,06,12,03,54,11.80
2015,06,12,03,55,11.80
2015,06,12,03,56,11.80
2015,06,12,03,57,11.80
2015,06,12,03,58,11.80
2015,06,12,03,59,11.80
2015,06,12,04,00,11.80
2015,06,12,04,01,11.80
2015,06,12,04,02,11.80
2015,06,12,04,03,11.80
2015,06,12,04,04,11.80
2015,06,12,04,05,11.80
2015,06,12,04,06,11.80
2015,06,12,04,07,11.80
2015,06,12,04,08,11.80
2015,06,12,04,09,11.80
2015,06,12,04,10,11.80
2015,06,12,04,11,11.80
2015,06,12,04,12,11.80
2015,06,12,04,13,11.70
2015,06,12,04,14,11.70
2015,06,12,04,15,11.70
2015,06,12,04,16,11.70
2015,06,12,04,17,11.70
2015,06,12,04,18,11.60
2015,06,12,04,19,11.60
2015,06,12,04,20,11.60
2015,06,12,04,21,11.60
2015,06,12,04,22,11.60
2015,06,12,04,23,11.60
2015,06,12,04,24,11.60
2015,06,12,04,25,11.60
2015,06,12,04,26,11.60
2015,06,12,04,27,11.60
2015,06,12,04,28,11.50
2015,06,12,04,29,11.40
2015,06,12,04,30,11.40
2015,06,12,04,31,11.40
2015,06,12,04,32,11.40
2015,06,12,04,33,11.40
2015,06,12,04,34,11.40
2015,06,12,04,35,11.30
2015,06,12,04,36,11.30
2015,06,12,04,37,11.30
2015,06,12,04,38,11.20
2015,06,12,04,39,11.20
2015,06,12,04,40,11.10
2015,06,12,04,41,11.10
2015,06,12,04,42,11.10
2015,06,12,04,43,11.00
2015,06,12,04,44,10.90
2015,06,12,04,45,10.90
2015,06,12,04,46,10.90
2015,06,12,04,47,10.80
2015,06,12,04,48,10.80
2015,06,12,04,49,10.70
2015,06,12,04,50,10.70
2015,06,12,04,51,10.70
2015,06,12,04,52,10.60
2015,06,12,04,53,10.60
2015,06,12,04,54,10.60
2015,06,12,04,55,10.60
2015,06,12,04,56,10.60
2015,06,12,04,57,10.60
2015,06,12,04,58,10.60
2015,06,12,04,59,10.60
2015,06,12,05,00,10.60
2015,06,12,05,01,10.60
2015,06,12,05,02,10.70
2015,06,12,05,03,10.70
2015,06,12,05,04,10.70
2015,06,12,05,05,10.80
2015,06,12,05,06,10.80
2015,06,12,05,07,10.90
2015,06,12,05,08,10.90
2015,06,12,05,09,10.90
2015,06,12,05,10,10.90
2015,06,12,05,11,10.80
2015,06,12,05,12,10.80
2015,06,12,05,13,10.80
2015,06,12,05,14,10.70
2015,06,12,05,15,10.70
2015,06,12,05,16,10.60
2015,06,12,05,17,10.60
2015,06,12,05,18,10.60
2015,06,12,05,19,10.50
2015,06,12,05,20,10.40
2015,06,12,05,21,10.40
2015,06,12,05,22,10.40
2015,06,12,05,23,10.30
2015,06,12,05,24,10.30
2015,06,12,05,25,10.20
2015,06,12,05,26,10.20
2015,06,12,05,27,10.10
2015,06,12,05,28,10.10
2015,06,12,05,29,10.10
2015,06,12,05,30,10.00
2015,06,12,05,31,9.90
2015,06,12,05,32,9.90
2015,06,12,05,33,9.90
2015,06,12,05,34,9.90
2015,06,12,05,35,9.90
2015,06,12,05,36,9.80
2015,06,12,05,37,9.80
2015,06,12,05,38,9.80
2015,06,12,05,39,9.70
2015,06,12,05,40,9.70
2015,06,12,05,41,9.70
2015,06,12,05,42,9.70
2015,06,12,05,43,9.70
2015,06,12,05,44,9.70
2015,06,12,05,45,9.70
2015,06,12,05,46,9.70
2015,06,12,05,47,9.70
2015,06,12,05,48,9.70
2015,06,12,05,49,9.70
2015,06,12,05,50,9.70
2015,06,12,05,51,9.70
2015,06,12,05,52,9.70
2015,06,12,05,53,9.70
2015,06,12,05,54,9.70
2015,06,12,05,55,9.70
2015,06,12,05,56,9.70
2015,06,12,05,57,9.70
2015,06,12,05,58,9.70
2015,06,12,05,59,9.70
2015,06,12,06,00,9.80
2015,06,12,06,01,9.80
2015,06,12,06,02,9.80
2015,06,12,06,03,9.90
2015,06,12,06,04,9.90
2015,06,12,06,05,9.90
2015,06,12,06,06,10.00
2015,06,12,06,07,10.10
2015,06,12,06,08,10.10
2015,06,12,06,09,10.10
2015,06,12,06,10,10.20
2015,06,12,06,11,10.30
2015,06,12,06,12,10.30
2015,06,12,06,13,10.40
2015,06,12,06,14,10.40
2015,06,12,06,15,10.50
2015,06,12,06,16,10.60
2015,06,12,06,17,10.60
2015,06,12,06,18,10.70
2015,06,12,06,19,10.70
2015,06,12,06,20,10.80
2015,06,12,06,21,10.80
2015,06,12,06,22,10.90
2015,06,12,06,23,10.90
2015,06,12,06,24,10.90
2015,06,12,06,25,11.10
2015,06,12,06,26,11.10
2015,06,12,06,27,11.10
2015,06,12,06,28,11.20
2015,06,12,06,29,11.20
2015,06,12,06,30,11.30
2015,06,12,06,31,11.30
2015,06,12,06,32,11.30
2015,06,12,06,33,11.40
2015,06,12,06,34,11.40
2015,06,12,06,35,11.40
2015,06,12,06,36,11.40
2015,06,12,06,37,11.40
2015,06,12,06,38,11.40
2015,06,12,06,39,11.40
2015,06,12,06,40,11.40
2015,06,12,06,41,11.40
2015,06,12,06,42,11.40
2015,06,12,06,43,11.40
2015,06,12,06,44,11.40
2015,06,12,06,45,11.50
2015,06,12,06,46,11.60
2015,06,12,06,47,11.60
2015,06,12,06,48,11.60
2015,06,12,06,49,11.60
2015,06,12,06,50,11.60
2015,06,12,06,51,11.70
2015,06,12,06,52,11.70
2015,06,12,06,53,11.70
2015,06,12,06,54,11.70
2015,06,12,06,55,11.80
2015,06,12,06,56,11.80
2015,06,12,06,57,11.80
2015,06,12,06,58,11.80
2015,06,12,06,59,11.80
2015,06,12,07,00,11.80
2015,06,12,07,01,11.80
2015,06,12,07,02,11.90
2015,06,12,07,03,11.90
2015,06,12,07,04,11.90
2015,06,12,07,05,11.90
2015,06,12,07,06,11.90
2015,06,12,07,07,11.90
2015,06,12,07,08,11.90
2015,06,12,07,09,11.90
2015,06,12,07,10,12.00
2015,06,12,07,11,12.00
2015,06,12,07,12,12.00
2015,06,12,07,13,12.00
2015,06,12,07,14,12.00
2015,06,12,07,15,12.10
2015,06,12,07,16,12.10
2015,06,12,07,17,12.10
2015,06,12,07,18,12.20
2015,06,12,07,19,12.20
2015,06,12,07,20,12.30
2015,06,12,07,21,12.40
2015,06,12,07,22,12.50
2015,06,12,07,23,12.70
2015,06,12,07,24,12.80
2015,06,12,07,25,12.90
2015,06,12,07,26,13.00
2015,06,12,07,27,13.10
2015,06,12,07,28,13.20
2015,06,12,07,29,13.30
2015,06,12,07,30,13.30
2015,06,12,07,31,13.30
2015,06,12,07,32,13.30
2015,06,12,07,33,13.40
2015,06,12,07,34,13.40
2015,06,12,07,35,13.40
2015,06,12,07,36,13.40
2015,06,12,07,37,13.50
2015,06,12,07,38,13.50
2015,06,12,07,39,13.60
2015,06,12,07,40,13.60
2015,06,12,07,41,13.60
2015,06,12,07,42,13.60
2015,06,12,07,43,13.70
2015,06,12,07,44,13.70
2015,06,12,07,45,13.70
2015,06,12,07,46,13.70
2015,06,12,07,47,13.70
2015,06,12,07,48,13.70
2015,06,12,07,49,13.70
2015,06,12,07,50,13.70
2015,06,12,07,51,13.70
2015,06,12,07,52,13.70
2015,06,12,07,53,13.60
2015,06,12,07,54,13.60
2015,06,12,07,55,13.60
2015,06,12,07,56,13.60
2015,06,12,07,57,13.60
2015,06,12,07,58,13.60
2015,06,12,07,59,13.70
2015,06,12,08,00,13.70
2015,06,12,08,01,13.70
2015,06,12,08,02,13.70
2015,06,12,08,03,13.70
2015,06,12,08,04,13.70
2015,06,12,08,05,13.70
2015,06,12,08,06,13.80
2015,06,12,08,07,13.80
2015,06,12,08,08,13.90
2015,06,12,08,09,13.90
2015,06,12,08,10,13.90
2015,06,12,08,11,14.00
2015,06,12,08,12,14.10
2015,06,12,08,13,14.20
2015,06,12,08,14,14.40
2015,06,12,08,15,14.50
2015,06,12,08,16,14.60
2015,06,12,08,17,14.70
2015,06,12,08,18,14.80
2015,06,12,08,19,14.90
2015,06,12,08,20,14.90
2015,06,12,08,21,14.90
2015,06,12,08,22,15.00
2015,06,12,08,23,15.00
2015,06,12,08,24,15.10
2015,06,12,08,25,15.10
2015,06,12,08,26,15.20
2015,06,12,08,27,15.20
2015,06,12,08,28,15.30
2015,06,12,08,29,15.30
2015,06,12,08,30,15.40
2015,06,12,08,31,15.40
2015,06,12,08,32,15.50
2015,06,12,08,33,15.60
2015,06,12,08,34,15.70
2015,06,12,08,35,15.80
2015,06,12,08,36,15.80
2015,06,12,08,37,15.90
2015,06,12,08,38,15.90
2015,06,12,08,39,15.90
2015,06,12,08,40,15.90
2015,06,12,08,41,15.80
2015,06,12,08,42,15.80
2015,06,12,08,43,15.80
2015,06,12,08,44,15.70
2015,06,12,08,45,15.70
2015,06,12,08,46,15.70
2015,06,12,08,47,15.70
2015,06,12,08,48,15.60
2015,06,12,08,49,15.60
2015,06,12,08,50,15.60
2015,06,12,08,51,15.50
2015,06,12,08,52,15.60
2015,06,12,08,53,15.60
2015,06,12,08,54,15.60
2015,06,12,08,55,15.60
2015,06,12,08,56,15.60
2015,06,12,08,57,15.60
2015,06,12,08,58,15.70
2015,06,12,08,59,15.70
2015,06,12,09,00,15.70
2015,06,12,09,01,15.70
2015,06,12,09,02,15.80
2015,06,12,09,03,15.80
2015,06,12,09,04,15.80
2015,06,12,09,05,15.80
2015,06,12,09,06,15.80
2015,06,12,09,07,15.80
2015,06,12,09,08,15.80
2015,06,12,09,09,15.80
2015,06,12,09,10,15.80
2015,06,12,09,11,15.80
2015,06,12,09,12,15.80
2015,06,12,09,13,15.80
2015,06,12,09,14,15.80
2015,06,12,09,15,15.80
2015,06,12,09,16,15.80
2015,06,12,09,17,15.80
2015,06,12,09,18,15.80
2015,06,12,09,19,15.90
2015,06,12,09,20,16.00
2015,06,12,09,21,16.10
2015,06,12,09,22,16.10
2015,06,12,09,23,16.20
2015,06,12,09,24,16.30
2015,06,12,09,25,16.40
2015,06,12,09,26,16.40
2015,06,12,09,27,16.30
2015,06,12,09,28,16.30
2015,06,12,09,29,16.20
2015,06,12,09,30,16.20
2015,06,12,09,31,16.20
2015,06,12,09,32,16.20
2015,06,12,09,33,16.10
2015,06,12,09,34,16.00
2015,06,12,09,35,15.80
2015,06,12,09,36,15.80
2015,06,12,09,37,15.70
2015,06,12,09,38,15.60
2015,06,12,09,39,15.50
2015,06,12,09,40,15.50
2015,06,12,09,41,15.40
2015,06,12,09,42,15.40
2015,06,12,09,43,15.40
2015,06,12,09,44,15.40
2015,06,12,09,45,15.30
2015,06,12,09,46,15.40
2015,06,12,09,47,15.40
2015,06,12,09,48,15.40
2015,06,12,09,49,15.50
2015,06,12,09,50,15.50
2015,06,12,09,51,15.50
2015,06,12,09,52,15.60
2015,06,12,09,53,15.60
2015,06,12,09,54,15.50
2015,06,12,09,55,15.50
2015,06,12,09,56,15.30
2015,06,12,09,57,15.30
2015,06,12,09,58,15.30
2015,06,12,09,59,15.30
2015,06,12,10,00,15.30
2015,06,12,10,01,15.50
2015,06,12,10,02,15.50
2015,06,12,10,03,15.60
2015,06,12,10,04,15.70
2015,06,12,10,05,15.70
2015,06,12,10,06,15.70
2015,06,12,10,07,15.80
2015,06,12,10,08,15.80
2015,06,12,10,09,15.80
2015,06,12,10,10,15.80
2015,06,12,10,11,16.00
2015,06,12,10,12,16.20
2015,06,12,10,13,16.30
2015,06,12,10,14,16.20
2015,06,12,10,15,16.10
2015,06,12,10,16,16.10
2015,06,12,10,17,16.10
2015,06,12,10,18,16.20
2015,06,12,10,19,16.10
2015,06,12,10,20,16.10
2015,06,12,10,21,16.00
2015,06,12,10,22,15.90
2015,06,12,10,23,15.80
2015,06,12,10,24,15.80
2015,06,12,10,25,15.80
2015,06,12,10,26,15.80
2015,06,12,10,27,15.80
2015,06,12,10,28,15.70
2015,06,12,10,29,15.70
2015,06,12,10,30,15.80
2015,06,12,10,31,15.80
2015,06,12,10,32,15.90
2015,06,12,10,33,15.90
2015,06,12,10,34,15.90
2015,06,12,10,35,15.90
2015,06,12,10,36,16.00
2015,06,12,10,37,16.10
2015,06,12,10,38,16.10
2015,06,12,10,39,16.10
2015,06,12,10,40,16.10
2015,06,12,10,41,16.00
2015,06,12,10,42,15.90
2015,06,12,10,43,15.90
2015,06,12,10,44,15.90
2015,06,12,10,45,15.80
2015,06,12,10,46,15.90
2015,06,12,10,47,15.80
2015,06,12,10,48,15.80
2015,06,12,10,49,15.80
2015,06,12,10,50,15.90
2015,06,12,10,51,16.00
2015,06,12,10,52,16.10
2015,06,12,10,53,16.00
2015,06,12,10,54,15.90
2015,06,12,10,55,15.80
2015,06,12,10,56,15.80
2015,06,12,10,57,15.90
2015,06,12,10,58,16.00
2015,06,12,10,59,16.10
2015,06,12,11,00,16.10
2015,06,12,11,01,16.10
2015,06,12,11,02,16.10
2015,06,12,11,03,16.10
2015,06,12,11,04,16.10
2015,06,12,11,05,16.10
2015,06,12,11,06,16.10
2015,06,12,11,07,16.10
2015,06,12,11,08,16.10
2015,06,12,11,09,16.10
2015,06,12,11,10,16.10
2015,06,12,11,11,16.10
2015,06,12,11,12,16.10
2015,06,12,11,13,16.20
2015,06,12,11,14,16.20
2015,06,12,11,15,16.20
2015,06,12,11,16,16.20
2015,06,12,11,17,16.30
2015,06,12,11,18,16.40
2015,06,12,11,19,16.50
2015,06,12,11,20,16.50
2015,06,12,11,21,16.40
2015,06,12,11,22,16.40
2015,06,12,11,23,16.40
2015,06,12,11,24,16.40
2015,06,12,11,25,16.50
2015,06,12,11,26,16.50
2015,06,12,11,27,16.40
2015,06,12,11,28,16.40
2015,06,12,11,29,16.40
2015,06,12,11,30,16.40
2015,06,12,11,31,16.50
2015,06,12,11,32,16.60
2015,06,12,11,33,16.70
2015,06,12,11,34,16.70
2015,06,12,11,35,16.70
2015,06,12,11,36,16.70
2015,06,12,11,37,16.70
2015,06,12,11,38,16.70
2015,06,12,11,39,16.70
2015,06,12,11,40,16.70
2015,06,12,11,41,16.70
2015,06,12,11,42,16.60
2015,06,12,11,43,16.60
2015,06,12,11,44,16.70
2015,06,12,11,45,16.70
2015,06,12,11,46,16.80
2015,06,12,11,47,16.70
2015,06,12,11,48,16.70
2015,06,12,11,49,16.70
2015,06,12,11,50,16.70
2015,06,12,11,51,16.80
2015,06,12,11,52,16.80
2015,06,12,11,53,16.70
2015,06,12,11,54,16.70
2015,06,12,11,55,16.70
2015,06,12,11,56,16.70
2015,06,12,11,57,16.70
2015,06,12,11,58,16.70
2015,06,12,11,59,16.70
2015,06,12,12,00,16.70
2015,06,12,12,01,16.70
2015,06,12,12,02,16.90
2015,06,12,12,03,16.90
2015,06,12,12,04,16.90
2015,06,12,12,05,16.90
2015,06,12,12,06,16.90
2015,06,12,12,07,16.90
2015,06,12,12,08,16.80
2015,06,12,12,09,16.80
2015,06,12,12,10,16.80
2015,06,12,12,11,16.80
2015,06,12,12,12,16.80
2015,06,12,12,13,16.70
2015,06,12,12,14,16.80
2015,06,12,12,15,16.80
2015,06,12,12,16,16.70
2015,06,12,12,17,16.70
2015,06,12,12,18,16.70
2015,06,12,12,19,16.70
2015,06,12,12,20,16.70
2015,06,12,12,21,16.60
2015,06,12,12,22,16.70
2015,06,12,12,23,16.70
2015,06,12,12,24,16.70
2015,06,12,12,25,16.70
2015,06,12,12,26,16.80
2015,06,12,12,27,16.90
2015,06,12,12,28,17.00
2015,06,12,12,29,16.90
2015,06,12,12,30,16.90
2015,06,12,12,31,16.90
2015,06,12,12,32,16.80
2015,06,12,12,33,16.80
2015,06,12,12,34,16.80
2015,06,12,12,35,16.80
2015,06,12,12,36,16.70
2015,06,12,12,37,16.70
2015,06,12,12,38,16.70
2015,06,12,12,39,16.70
2015,06,12,12,40,16.70
2015,06,12,12,41,16.60
2015,06,12,12,42,16.60
2015,06,12,12,43,16.60
2015,06,12,12,44,16.70
2015,06,12,12,45,16.70
2015,06,12,12,46,16.70
2015,06,12,12,47,16.70
2015,06,12,12,48,16.70
2015,06,12,12,49,16.70
2015,06,12,12,50,16.80
2015,06,12,12,51,16.70
2015,06,12,12,52,16.70
2015,06,12,12,53,16.80
2015,06,12,12,54,16.80
2015,06,12,12,55,16.80
2015,06,12,12,56,16.70
2015,06,12,12,57,16.70
2015,06,12,12,58,16.60
2015,06,12,12,59,16.60
2015,06,12,13,00,16.60
2015,06,12,13,01,16.60
2015,06,12,13,02,16.60
2015,06,12,13,03,16.70
2015,06,12,13,04,16.70
2015,06,12,13,05,16.70
2015,06,12,13,06,16.80
2015,06,12,13,07,16.80
2015,06,12,13,08,16.90
2015,06,12,13,09,17.00
2015,06,12,13,10,17.00
2015,06,12,13,11,17.00
2015,06,12,13,12,17.00
2015,06,12,13,13,17.10
2015,06,12,13,14,17.20
2015,06,12,13,15,17.20
2015,06,12,13,16,17.20
2015,06,12,13,17,17.30
2015,06,12,13,18,17.20
2015,06,12,13,19,17.20
2015,06,12,13,20,17.20
2015,06,12,13,21,17.30
2015,06,12,13,22,17.30
2015,06,12,13,23,17.30
2015,06,12,13,24,17.30
2015,06,12,13,25,17.40
2015,06,12,13,26,17.50
2015,06,12,13,27,17.50
2015,06,12,13,28,17.50
2015,06,12,13,29,17.50
2015,06,12,13,30,17.50
2015,06,12,13,31,17.40
2015,06,12,13,32,17.30
2015,06,12,13,33,17.30
2015,06,12,13,34,17.30
2015,06,12,13,35,17.30
2015,06,12,13,36,17.30
2015,06,12,13,37,17.20
2015,06,12,13,38,17.20
2015,06,12,13,39,17.10
2015,06,12,13,40,17.00
2015,06,12,13,41,17.00
2015,06,12,13,42,17.10
2015,06,12,13,43,17.00
2015,06,12,13,44,17.00
2015,06,12,13,45,17.00
2015,06,12,13,46,17.00
2015,06,12,13,47,17.10
2015,06,12,13,48,17.20
2015,06,12,13,49,17.10
2015,06,12,13,50,17.00
2015,06,12,13,51,16.90
2015,06,12,13,52,16.80
2015,06,12,13,53,16.80
2015,06,12,13,54,16.70
2015,06,12,13,55,16.70
2015,06,12,13,56,16.70
2015,06,12,13,57,16.70
2015,06,12,13,58,16.80
2015,06,12,13,59,16.80
2015,06,12,14,00,16.90
2015,06,12,14,01,17.00
2015,06,12,14,02,17.00
2015,06,12,14,03,17.00
2015,06,12,14,04,16.90
2015,06,12,14,05,16.90
2015,06,12,14,06,16.80
2015,06,12,14,07,16.70
2015,06,12,14,08,16.70
2015,06,12,14,09,16.80
2015,06,12,14,10,16.90
2015,06,12,14,11,16.90
2015,06,12,14,12,16.90
2015,06,12,14,13,16.90
2015,06,12,14,14,17.00
2015,06,12,14,15,17.10
2015,06,12,14,16,17.20
2015,06,12,14,17,17.30
2015,06,12,14,18,17.40
2015,06,12,14,19,17.50
2015,06,12,14,20,17.70
2015,06,12,14,21,17.80
2015,06,12,14,22,17.90
2015,06,12,14,23,17.90
2015,06,12,14,24,17.80
2015,06,12,14,25,17.80
2015,06,12,14,26,17.70
2015,06,12,14,27,17.70
2015,06,12,14,28,17.60
2015,06,12,14,29,17.50
2015,06,12,14,30,17.40
2015,06,12,14,31,17.30
2015,06,12,14,32,17.30
2015,06,12,14,33,17.50
2015,06,12,14,34,17.50
2015,06,12,14,35,17.50
2015,06,12,14,36,17.50
2015,06,12,14,37,17.50
2015,06,12,14,38,17.40
2015,06,12,14,39,17.40
2015,06,12,14,40,17.40
2015,06,12,14,41,17.40
2015,06,12,14,42,17.30
2015,06,12,14,43,17.30
2015,06,12,14,44,17.30
2015,06,12,14,45,17.30
2015,06,12,14,46,17.20
2015,06,12,14,47,17.20
2015,06,12,14,48,17.20
2015,06,12,14,49,17.20
2015,06,12,14,50,17.30
2015,06,12,14,51,17.30
2015,06,12,14,52,17.20
2015,06,12,14,53,17.20
2015,06,12,14,54,17.20
2015,06,12,14,55,17.30
2015,06,12,14,56,17.30
2015,06,12,14,57,17.30
2015,06,12,14,58,17.40
2015,06,12,14,59,17.40
2015,06,12,15,00,17.40
2015,06,12,15,01,17.40
2015,06,12,15,02,17.50
2015,06,12,15,03,17.50
2015,06,12,15,04,17.40
2015,06,12,15,05,17.40
2015,06,12,15,06,17.40
2015,06,12,15,07,17.40
2015,06,12,15,08,17.50
2015,06,12,15,09,17.50
2015,06,12,15,10,17.60
2015,06,12,15,11,17.60
2015,06,12,15,12,17.60
2015,06,12,15,13,17.60
2015,06,12,15,14,17.50
2015,06,12,15,15,17.50
2015,06,12,15,16,17.60
2015,06,12,15,17,17.60
2015,06,12,15,18,17.50
2015,06,12,15,19,17.50
2015,06,12,15,20,17.50
2015,06,12,15,21,17.50
2015,06,12,15,22,17.50
2015,06,12,15,23,17.60
2015,06,12,15,24,17.60
2015,06,12,15,25,17.80
2015,06,12,15,26,17.90
2015,06,12,15,27,18.00
2015,06,12,15,28,17.90
2015,06,12,15,29,17.90
2015,06,12,15,30,17.80
2015,06,12,15,31,17.80
2015,06,12,15,32,17.80
2015,06,12,15,33,17.80
2015,06,12,15,34,17.80
2015,06,12,15,35,17.70
2015,06,12,15,36,17.80
2015,06,12,15,37,17.90
2015,06,12,15,38,17.90
2015,06,12,15,39,17.90
2015,06,12,15,40,17.80
2015,06,12,15,41,17.80
2015,06,12,15,42,17.70
2015,06,12,15,43,17.70
2015,06,12,15,44,17.70
2015,06,12,15,45,17.60
2015,06,12,15,46,17.50
2015,06,12,15,47,17.60
2015,06,12,15,48,17.60
2015,06,12,15,49,17.70
2015,06,12,15,50,17.70
2015,06,12,15,51,17.80
2015,06,12,15,52,17.90
2015,06,12,15,53,17.90
2015,06,12,15,54,17.90
2015,06,12,15,55,17.90
2015,06,12,15,56,17.90
2015,06,12,15,57,17.90
2015,06,12,15,58,17.90
2015,06,12,15,59,17.90
2015,06,12,16,00,18.00
2015,06,12,16,01,18.10
2015,06,12,16,02,18.10
2015,06,12,16,03,18.10
2015,06,12,16,04,18.10
2015,06,12,16,05,17.90
2015,06,12,16,06,17.90
2015,06,12,16,07,17.80
2015,06,12,16,08,17.70
2015,06,12,16,09,17.60
2015,06,12,16,10,17.50
2015,06,12,16,11,17.50
2015,06,12,16,12,17.50
2015,06,12,16,13,17.60
2015,06,12,16,14,17.70
2015,06,12,16,15,17.70
2015,06,12,16,16,17.60
2015,06,12,16,17,17.70
2015,06,12,16,18,17.70
2015,06,12,16,19,17.80
2015,06,12,16,20,17.70
2015,06,12,16,21,17.70
2015,06,12,16,22,17.60
2015,06,12,16,23,17.50
2015,06,12,16,24,17.40
2015,06,12,16,25,17.40
2015,06,12,16,26,17.50
2015,06,12,16,27,17.50
2015,06,12,16,28,17.50
2015,06,12,16,29,17.50
2015,06,12,16,30,17.50
2015,06,12,16,31,17.50
2015,06,12,16,32,17.50
2015,06,12,16,33,17.50
2015,06,12,16,34,17.50
2015,06,12,16,35,17.60
2015,06,12,16,36,17.70
2015,06,12,16,37,17.80
2015,06,12,16,38,17.80
2015,06,12,16,39,17.80
2015,06,12,16,40,17.70
2015,06,12,16,41,17.60
2015,06,12,16,42,17.60
2015,06,12,16,43,17.80
2015,06,12,16,44,17.80
2015,06,12,16,45,17.80
2015,06,12,16,46,17.80
2015,06,12,16,47,17.80
2015,06,12,16,48,17.80
2015,06,12,16,49,17.90
2015,06,12,16,50,18.00
2015,06,12,16,51,18.20
2015,06,12,16,52,18.20
2015,06,12,16,53,18.20
2015,06,12,16,54,18.20
2015,06,12,16,55,18.10
2015,06,12,16,56,18.10
2015,06,12,16,57,18.20
2015,06,12,16,58,18.20
2015,06,12,16,59,18.00
2015,06,12,17,00,17.90
2015,06,12,17,01,17.90
2015,06,12,17,02,17.90
2015,06,12,17,03,17.90
2015,06,12,17,04,17.90
2015,06,12,17,05,17.90
2015,06,12,17,06,17.90
2015,06,12,17,07,17.80
2015,06,12,17,08,17.70
2015,06,12,17,09,17.60
2015,06,12,17,10,17.50
2015,06,12,17,11,17.50
2015,06,12,17,12,17.50
2015,06,12,17,13,17.40
2015,06,12,17,14,17.40
2015,06,12,17,15,17.40
2015,06,12,17,16,17.40
2015,06,12,17,17,17.50
2015,06,12,17,18,17.50
2015,06,12,17,19,17.60
2015,06,12,17,20,17.70